Torna al catalogo

STARLINK-32361

AttivoComunicazioniVLEO
NORAD 61933·PAYLOAD·🇺🇸 United States

Lanciato Nov 11, 2024 da Cape Canaveral Space Force Station

Loading…

Prossimi Passaggi (prossime 24 ore)

TLE

AggiornatoSource: CelesTrak SupGP

Epoca: Sep 15, 2026, 02:51 UTC

1 61933C 24207X   26258.11923611  .00012770  00000+0  46255-3 0  2583
2 61933  43.0029 292.2672 0001435 268.2392 280.4124 15.27571938    17

Traccia STARLINK-32361 in tempo reale con AllMySat

Download on the App Store